GW1888 Weather Reports


time (UTC)temp
C
wind
direction
speed
KPH
gust
KPH
rain 1hr
cm
rain 24hr
cm
rain mn
cm
humidity
%
barometer
mb
20260905185811 22 179 4.8 4.8 0.00 0.00 0.00 75 1012.7
20260905185307 22 199 3.2 3.2 0.00 0.00 0.00 71 1012.4
20260905184801 22 210 3.2 3.2 0.00 0.00 0.00 71 1012.4
20260905184259 22 225 3.2 4.8 0.00 0.00 0.00 71 1012.3
20260905183753 23 264 6.4 8.0 0.00 0.00 0.00 69 1012.4
20260905183248 22 319 8.0 11.3 0.00 0.00 0.00 69 1012.3
20260905182747 23 211 3.2 3.2 0.00 0.00 0.00 71 1012.4
20260905182242 23 228 1.6 3.2 0.00 0.00 0.00 69 1012.4
20260905181737 23 183 0.0 3.2 0.00 0.00 0.00 73 1012.4
20260905181237 22 227 11.3 14.5 0.00 0.00 0.00 72 1012.4
20260905180732 22 297 6.4 8.0 0.00 0.00 0.00 71 1012.4
20260905180227 22 182 0.0 0.0 0.00 0.00 0.00 74 1012.6
20260905175726 22 215 1.6 3.2 0.00 0.00 0.00 76 1012.3
20260905175221 21 180 4.8 4.8 0.00 0.00 0.00 77 1012.4
20260905174716 22 177 1.6 3.2 0.00 0.00 0.00 78 1012.5
20260905174212 22 176 3.2 4.8 0.00 0.00 0.00 76 1012.5
20260905173708 22 189 3.2 3.2 0.00 0.00 0.00 75 1012.5
20260905173204 22 202 3.2 3.2 0.00 0.00 0.00 72 1012.7
20260905172703 21 204 4.8 8.0 0.00 0.00 0.00 76 1012.7
20260905172157 22 231 4.8 4.8 0.00 0.00 0.00 74 1012.5
20260905171653 22 209 1.6 3.2 0.00 0.00 0.00 74 1012.5
20260905171149 22 170 1.6 3.2 0.00 0.00 0.00 75 1012.5
20260905170646 22 177 1.6 3.2 0.00 0.00 0.00 74 1012.8
20260905170141 21 194 1.6 3.2 0.00 0.00 0.00 79 1012.5
20260905165640 21 314 8.0 11.3 0.00 0.00 0.00 78 1012.7
20260905165136 21 101 3.2 4.8 0.00 0.00 0.00 78 1012.6
20260905164631 21 209 3.2 4.8 0.00 0.00 0.00 77 1012.6
20260905164130 22 208 3.2 4.8 0.00 0.00 0.00 76 1012.5
20260905163626 22 182 4.8 4.8 0.00 0.00 0.00 76 1012.4
20260905163123 21 210 4.8 4.8 0.00 0.00 0.00 78 1012.6
20260905162619 22 49 4.8 4.8 0.00 0.00 0.00 75 1012.4
20260905162118 22 129 11.3 14.5 0.00 0.00 0.00 76 1012.4
20260905161617 22 221 11.3 16.1 0.00 0.00 0.00 74 1012.5
20260905161115 22 188 1.6 3.2 0.00 0.00 0.00 75 1012.4
20260905160615 22 184 8.0 14.5 0.00 0.00 0.00 72 1012.3
20260905160109 22 212 4.8 4.8 0.00 0.00 0.00 73 1012.4
20260905155604 21 186 3.2 4.8 0.00 0.00 0.00 77 1012.4
20260905155103 22 191 3.2 3.2 0.00 0.00 0.00 76 1012.5
20260905154557 22 204 3.2 4.8 0.00 0.00 0.00 75 1012.5
20260905154053 21 290 9.7 14.5 0.00 0.00 0.00 75 1012.6
20260905153548 21 178 0.0 3.2 0.00 0.00 0.00 77 1012.5
20260905153048 20 4 9.7 11.3 0.00 0.00 0.00 78 1012.7
20260905152543 20 359 4.8 4.8 0.00 0.00 0.00 79 1012.8
20260905152038 20 182 6.4 8.0 0.00 0.00 0.00 79 1012.7
20260905151533 20 206 8.0 8.0 0.00 0.00 0.00 80 1012.8
20260905151029 20 203 4.8 8.0 0.00 0.00 0.00 81 1012.6
20260905150524 20 194 4.8 4.8 0.00 0.00 0.00 81 1012.8
20260905150021 20 177 3.2 4.8 0.00 0.00 0.00 81 1012.7
20260905145515 20 203 4.8 4.8 0.00 0.00 0.00 78 1012.6
20260905145015 21 346 4.8 4.8 0.00 0.00 0.00 78 1012.7
20260905144510 21 202 3.2 3.2 0.00 0.00 0.00 78 1012.5
20260905144009 20 169 0.0 0.0 0.00 0.00 0.00 81 1012.5
20260905143508 20 49 3.2 3.2 0.00 0.00 0.00 82 1012.5
20260905143003 20 193 1.6 3.2 0.00 0.00 0.00 81 1012.7
20260905142501 20 346 9.7 14.5 0.00 0.00 0.00 81 1012.6
20260905141957 20 350 4.8 4.8 0.00 0.00 0.00 82 1012.4
20260905141451 20 228 8.0 11.3 0.00 0.00 0.00 79 1012.4
20260905140948 20 174 0.0 0.0 0.00 0.00 0.00 83 1012.3
20260905140442 20 10 6.4 8.0 0.00 0.00 0.00 83 1012.4
20260905135936 20 243 0.0 3.2 0.00 0.00 0.00 83 1012.4
20260905135432 20 184 0.0 0.0 0.00 0.00 0.00 84 1012.5
20260905134927 19 0 3.2 4.8 0.00 0.00 0.00 84 1012.2
20260905134426 20 197 0.0 3.2 0.00 0.00 0.00 86 1012.2
20260905133921 20 255 1.6 4.8 0.00 0.00 0.00 85 1012.1
20260905133420 20 240 3.2 3.2 0.00 0.00 0.00 86 1012.1
20260905132920 20 225 1.6 3.2 0.00 0.00 0.00 88 1012.2
20260905132415 19 165 0.0 0.0 0.00 0.00 0.00 87 1012.0
20260905131910 19 320 3.2 4.8 0.00 0.00 0.00 87 1012.1
20260905131406 19 100 4.8 4.8 0.00 0.00 0.00 86 1012.1
20260905130901 19 206 3.2 3.2 0.00 0.00 0.00 86 1011.9
20260905130400 19 201 1.6 3.2 0.00 0.00 0.00 86 1012.0
20260905125855 18 22 6.4 8.0 0.00 0.00 0.00 87 1011.9
20260905125350 18 184 0.0 0.0 0.00 0.00 0.00 91 1011.8
20260905124845 18 190 1.6 3.2 0.00 0.00 0.00 92 1011.8
20260905124342 18 189 0.0 0.0 0.00 0.00 0.00 93 1012.0
20260905123842 18 254 4.8 8.0 0.00 0.00 0.00 94 1011.7
20260905123338 18 189 3.2 3.2 0.00 0.00 0.00 94 1011.6
20260905122833 17 194 0.0 0.0 0.00 0.00 0.00 94 1011.7
20260905122332 17 181 4.8 4.8 0.00 0.00 0.00 95 1011.6
20260905121828 17 196 0.0 3.2 0.00 0.00 0.00 94 1011.7
20260905121324 17 237 4.8 4.8 0.00 0.00 0.00 95 1011.8
20260905120822 17 199 3.2 4.8 0.00 0.00 0.00 95 1011.8
20260905120317 17 200 1.6 3.2 0.00 0.00 0.00 95 1011.7
20260905115812 17 207 4.8 4.8 0.00 0.00 0.00 96 1011.7
20260905115311 17 256 3.2 4.8 0.00 0.00 0.00 97 1011.6
20260905114812 16 252 4.8 8.0 0.00 0.00 0.00 96 1011.6
20260905114311 16 164 0.0 0.0 0.00 0.00 0.00 96 1011.6
20260905113810 16 162 0.0 0.0 0.00 0.00 0.00 96 1011.4
20260905113306 16 193 0.0 0.0 0.00 0.00 0.00 97 1011.5
20260905112801 16 36 1.6 4.8 0.00 0.00 0.00 97 1011.4
20260905112256 17 193 3.2 3.2 0.00 0.00 0.00 97 1011.5
20260905111751 16 194 0.0 3.2 0.00 0.00 0.00 97 1011.6
20260905111245 16 197 0.0 0.0 0.00 0.00 0.00 97 1011.6
20260905110744 16 221 3.2 3.2 0.00 0.00 0.00 97 1011.3
20260905110238 16 209 4.8 4.8 0.00 0.00 0.00 98 1011.4
20260905105734 16 240 1.6 4.8 0.00 0.00 0.00 98 1011.1
20260905105233 16 232 3.2 4.8 0.00 0.00 0.00 98 1011.2
20260905104728 16 240 6.4 11.3 0.00 0.00 0.00 99 1011.0
20260905104224 15 183 0.0 0.0 0.00 0.00 0.00 99 1011.2
20260905103719 15 134 0.0 0.0 0.00 0.00 0.00 99 1011.2
20260905103215 15 164 0.0 0.0 0.00 0.00 0.00 99 1011.2
20260905102710 15 97 0.0 0.0 0.00 0.00 0.00 99 1011.0
20260905102207 15 170 0.0 0.0 0.00 0.00 0.00 99 1010.8
20260905101706 15 192 0.0 0.0 0.00 0.00 0.00 99 1010.9
20260905101204 15 166 0.0 0.0 0.00 0.00 0.00 99 1010.7
20260905100700 15 166 0.0 0.0 0.00 0.00 0.00 99 1010.8
20260905100155 15 148 0.0 0.0 0.00 0.00 0.00 99 1010.9
20260905095654 15 167 0.0 0.0 0.00 0.00 0.00 99 1010.7
20260905095149 15 164 0.0 0.0 0.00 0.00 0.00 99 1010.6
20260905094644 15 169 0.0 0.0 0.00 0.00 0.00 99 1010.7
20260905094143 15 163 0.0 0.0 0.00 0.00 0.00 99 1010.7
20260905093638 15 168 0.0 0.0 0.00 0.00 0.00 99 1010.6
20260905093135 15 143 0.0 0.0 0.00 0.00 0.00 99 1010.8
20260905092634 15 166 0.0 0.0 0.00 0.00 0.00 99 1010.6
20260905092130 15 155 0.0 0.0 0.00 0.00 0.00 99 1010.8
20260905091629 15 168 0.0 0.0 0.00 0.00 0.00 99 1010.7
20260905091124 15 168 0.0 0.0 0.00 0.00 0.00 99 1010.7
20260905090619 15 174 0.0 0.0 0.00 0.00 0.00 99 1010.6
20260905090114 15 169 0.0 0.0 0.00 0.00 0.00 99 1010.4
20260905085612 15 188 0.0 0.0 0.00 0.00 0.00 99 1010.4
20260905085109 15 173 0.0 0.0 0.00 0.00 0.00 99 1010.5
20260905084607 15 164 0.0 0.0 0.00 0.00 0.00 99 1010.6
20260905084103 15 170 0.0 0.0 0.00 0.00 0.00 99 1010.6
20260905083557 15 158 0.0 0.0 0.00 0.00 0.00 99 1010.6
20260905083054 15 166 0.0 3.2 0.00 0.00 0.00 99 1010.7
20260905082549 15 167 0.0 0.0 0.00 0.00 0.00 99 1010.7
20260905082045 15 139 0.0 3.2 0.00 0.00 0.00 98 1010.8
20260905081544 15 111 0.0 0.0 0.00 0.00 0.00 98 1010.6
20260905081039 15 121 0.0 0.0 0.00 0.00 0.00 98 1010.7
20260905080538 15 126 0.0 0.0 0.00 0.00 0.00 97 1010.5
20260905080033 15 168 0.0 0.0 0.00 0.00 0.00 97 1010.7
20260905075526 15 171 0.0 0.0 0.00 0.00 0.00 96 1010.4
20260905075021 15 173 0.0 0.0 0.00 0.00 0.00 96 1010.6
20260905074516 16 171 0.0 0.0 0.00 0.00 0.00 96 1010.6
20260905074011 16 159 0.0 0.0 0.00 0.00 0.00 95 1010.7
20260905073506 16 233 0.0 0.0 0.00 0.00 0.00 95 1010.7
20260905073002 16 168 0.0 0.0 0.00 0.00 0.00 95 1010.7
20260905072456 16 11 4.8 4.8 0.00 0.00 0.00 95 1010.8
20260905071951 16 137 3.2 3.2 0.00 0.00 0.00 95 1010.8
20260905071449 16 63 3.2 4.8 0.00 0.00 0.00 95 1010.8
20260905070948 16 174 0.0 0.0 0.00 0.00 0.00 95 1011.0
20260905070444 16 171 0.0 0.0 0.00 0.00 0.00 95 1010.7
20260905065944 16 165 0.0 0.0 0.00 0.00 0.00 95 1010.9
20260905065442 16 181 0.0 0.0 0.00 0.00 0.00 95 1010.8
20260905064937 16 63 3.2 4.8 0.00 0.00 0.00 95 1010.9
20260905064432 16 248 0.0 0.0 0.00 0.00 0.00 95 1010.8
20260905063927 16 334 0.0 0.0 0.00 0.00 0.00 95 1010.9
20260905063422 16 170 0.0 0.0 0.00 0.00 0.00 95 1010.9
20260905062918 16 172 0.0 0.0 0.00 0.00 0.00 94 1010.9
20260905062412 16 152 0.0 0.0 0.00 0.00 0.00 94 1010.9
20260905061907 17 206 0.0 0.0 0.00 0.00 0.00 93 1010.9
20260905061406 17 182 0.0 0.0 0.00 0.00 0.00 92 1010.9
20260905060901 17 169 0.0 0.0 0.00 0.00 0.00 93 1011.2
20260905060357 17 152 1.6 3.2 0.00 0.00 0.00 93 1011.1
20260905055856 17 171 0.0 0.0 0.00 0.00 0.00 93 1011.1
20260905055352 17 156 0.0 3.2 0.00 0.00 0.00 93 1011.1
20260905054851 16 172 0.0 0.0 0.00 0.00 0.00 94 1011.0
20260905054347 16 177 0.0 0.0 0.00 0.00 0.00 94 1011.1
20260905053841 16 172 0.0 0.0 0.00 0.00 0.00 93 1011.1
20260905053341 16 172 0.0 0.0 0.00 0.00 0.00 93 1011.1
20260905052837 17 172 0.0 0.0 0.00 0.00 0.00 93 1011.1
20260905052331 17 170 0.0 0.0 0.00 0.00 0.00 92 1011.2
20260905051831 17 168 0.0 0.0 0.00 0.00 0.00 92 1011.3
20260905051327 16 171 0.0 0.0 0.00 0.00 0.00 92 1011.3
20260905050824 16 167 0.0 0.0 0.00 0.00 0.00 92 1011.3
20260905050320 16 172 0.0 0.0 0.00 0.00 0.00 92 1011.1
20260905045814 16 172 0.0 0.0 0.00 0.00 0.00 92 1011.3
20260905045310 17 171 0.0 0.0 0.00 0.00 0.00 92 1011.1
20260905044805 17 192 0.0 0.0 0.00 0.00 0.00 92 1011.1
20260905044300 17 172 0.0 0.0 0.00 0.00 0.00 91 1011.1
20260905043758 17 166 0.0 3.2 0.00 0.00 0.00 91 1011.2
20260905043254 17 171 1.6 3.2 0.00 0.00 0.00 91 1011.3
20260905042754 17 130 0.0 0.0 0.00 0.00 0.00 91 1011.2
20260905042253 17 170 0.0 0.0 0.00 0.00 0.00 90 1011.3
20260905041748 17 175 0.0 0.0 0.00 0.00 0.00 90 1011.1
20260905041244 17 174 0.0 0.0 0.00 0.00 0.00 89 1010.9
20260905040739 17 145 3.2 3.2 0.00 0.00 0.00 88 1011.2
20260905040237 17 60 0.0 3.2 0.00 0.00 0.00 90 1011.1
20260905035732 17 138 0.0 0.0 0.00 0.00 0.00 90 1011.1
20260905035229 17 172 0.0 0.0 0.00 0.00 0.00 89 1011.2
20260905034725 17 174 0.0 0.0 0.00 0.00 0.00 89 1011.1
20260905034225 17 176 0.0 0.0 0.00 0.00 0.00 88 1011.1
20260905033723 18 171 0.0 0.0 0.00 0.00 0.00 88 1011.1
20260905033219 18 185 0.0 3.2 0.00 0.00 0.00 87 1011.1
20260905032718 18 166 0.0 0.0 0.00 0.00 0.00 87 1010.9
20260905032214 18 166 0.0 0.0 0.00 0.00 0.00 87 1011.2
20260905031709 18 17 4.8 4.8 0.00 0.00 0.00 86 1011.1
20260905031205 18 82 0.0 0.0 0.00 0.00 0.00 87 1011.3
20260905030659 18 100 3.2 3.2 0.00 0.00 0.00 87 1011.2
20260905030154 18 167 0.0 0.0 0.00 0.00 0.00 87 1011.1
20260905025649 18 163 0.0 0.0 0.00 0.00 0.00 87 1011.2
20260905025145 19 162 1.6 3.2 0.00 0.00 0.00 87 1011.5
20260905024641 19 179 0.0 0.0 0.00 0.00 0.00 86 1011.6
20260905024136 19 177 0.0 0.0 0.00 0.00 0.00 85 1011.4
20260905023632 20 166 1.6 4.8 0.00 0.00 0.00 84 1011.6
20260905023131 19 207 6.4 8.0 0.00 0.00 0.00 86 1011.5
20260905022630 19 149 0.0 0.0 0.00 0.00 0.00 85 1011.5
20260905022125 18 168 0.0 0.0 0.00 0.00 0.00 86 1011.4
20260905021620 18 156 1.6 3.2 0.00 0.00 0.00 87 1011.5
20260905021115 18 171 0.0 0.0 0.00 0.00 0.00 88 1011.7
20260905020615 18 111 3.2 3.2 0.00 0.00 0.00 90 1011.8
20260905020111 18 124 3.2 3.2 0.00 0.00 0.00 90 1011.7
20260905015609 19 166 0.0 0.0 0.00 0.00 0.00 89 1011.8
20260905015103 20 180 0.0 0.0 0.00 0.00 0.00 86 1011.6
20260905014557 20 180 0.0 0.0 0.00 0.00 0.00 85 1011.7
20260905014053 20 204 3.2 3.2 0.00 0.00 0.00 84 1011.8
20260905013549 19 207 3.2 4.8 0.00 0.00 0.00 87 1011.7
20260905013045 18 163 0.0 0.0 0.00 0.00 0.00 89 1011.7
20260905012544 18 162 0.0 0.0 0.00 0.00 0.00 88 1011.6
20260905012042 18 162 0.0 0.0 0.00 0.00 0.00 88 1011.6
20260905011537 18 162 0.0 0.0 0.00 0.00 0.00 87 1011.6
20260905011033 18 162 0.0 0.0 0.00 0.00 0.00 85 1011.6
20260905010527 18 163 0.0 0.0 0.00 0.00 0.00 85 1011.7
20260905010024 18 164 0.0 0.0 0.00 0.00 0.00 85 1011.7
20260905005519 18 156 0.0 0.0 0.00 0.00 0.00 85 1011.6
20260905005014 19 166 0.0 0.0 0.00 0.00 0.00 84 1011.7
20260905004509 19 167 0.0 0.0 0.00 0.00 0.00 83 1011.6
20260905004004 19 153 0.0 0.0 0.00 0.00 0.00 83 1011.4
20260905003459 20 161 0.0 0.0 0.00 0.00 0.00 81 1011.7
20260905002954 20 166 0.0 0.0 0.00 0.00 0.00 81 1011.4
20260905002449 20 166 0.0 0.0 0.00 0.00 0.00 79 1011.6
20260905001944 20 166 0.0 0.0 0.00 0.00 0.00 79 1011.6
20260905001439 20 184 0.0 0.0 0.00 0.00 0.00 79 1011.6
20260905000933 20 169 0.0 0.0 0.00 0.00 0.00 79 1011.7
20260905000431 20 139 0.0 3.2 0.00 0.00 0.00 79 1011.6
20260904235924 21 158 1.6 3.2 0.00 0.00 0.00 76 1011.5
20260904235420 21 177 0.0 0.0 0.00 0.00 0.00 74 1011.3
20260904234919 21 174 0.0 0.0 0.00 0.00 0.00 75 1011.3
20260904234414 21 112 4.8 4.8 0.00 0.00 0.00 74 1011.2
20260904233910 21 185 0.0 0.0 0.00 0.00 0.00 77 1011.1
20260904233405 21 197 0.0 0.0 0.00 0.00 0.00 76 1011.1
20260904232902 21 160 1.6 3.2 0.00 0.00 0.00 78 1011.1
20260904232358 21 159 0.0 0.0 0.00 0.00 0.00 77 1011.2
20260904231854 21 151 1.6 3.2 0.00 0.00 0.00 77 1011.1
20260904231349 21 170 0.0 0.0 0.00 0.00 0.00 75 1011.2
20260904230844 21 139 3.2 3.2 0.00 0.00 0.00 73 1011.1
20260904230343 21 170 0.0 0.0 0.00 0.00 0.00 75 1011.1
20260904225838 21 180 0.0 0.0 0.00 0.00 0.00 77 1010.8
20260904225336 22 168 0.0 0.0 0.00 0.00 0.00 74 1010.9
20260904224836 23 168 0.0 0.0 0.00 0.00 0.00 71 1011.0
20260904224331 23 185 0.0 0.0 0.00 0.00 0.00 73 1011.0
20260904223831 23 156 1.6 3.2 0.00 0.00 0.00 72 1011.0
20260904223325 24 180 0.0 0.0 0.00 0.00 0.00 71 1011.0
20260904222821 24 318 4.8 4.8 0.00 0.00 0.00 66 1011.1
20260904222315 24 341 3.2 4.8 0.00 0.00 0.00 64 1011.1
20260904221810 25 27 4.8 4.8 0.00 0.00 0.00 64 1011.1
20260904221310 25 191 0.0 0.0 0.00 0.00 0.00 69 1010.9
20260904220806 25 26 6.4 8.0 0.00 0.00 0.00 64 1011.0
20260904220305 23 170 3.2 3.2 0.00 0.00 0.00 67 1010.9
20260904215800 23 276 4.8 4.8 0.00 0.00 0.00 68 1011.1
20260904215255 23 171 0.0 0.0 0.00 0.00 0.00 71 1010.9
20260904214751 23 198 3.2 4.8 0.00 0.00 0.00 68 1011.1
20260904214247 23 148 3.2 4.8 0.00 0.00 0.00 68 1010.9
20260904213744 23 192 0.0 0.0 0.00 0.00 0.00 71 1010.8
20260904213241 24 46 4.8 4.8 0.00 0.00 0.00 68 1010.9
20260904212736 24 131 0.0 0.0 0.00 0.00 0.00 69 1010.9
20260904212236 25 143 1.6 3.2 0.00 0.00 0.00 69 1010.9
20260904211731 25 186 1.6 3.2 0.00 0.00 0.00 66 1010.9
20260904211226 25 187 0.0 3.2 0.00 0.00 0.00 65 1010.9
20260904210721 23 174 0.0 0.0 0.00 0.00 0.00 70 1010.8
20260904210216 23 189 0.0 0.0 0.00 0.00 0.00 68 1011.0
20260904205712 24 195 0.0 0.0 0.00 0.00 0.00 68 1010.7
20260904205208 24 177 0.0 0.0 0.00 0.00 0.00 69 1010.8
20260904204704 24 168 0.0 0.0 0.00 0.00 0.00 70 1010.7
20260904204200 24 182 1.6 3.2 0.00 0.00 0.00 68 1010.6
20260904203655 24 319 6.4 8.0 0.00 0.00 0.00 66 1010.8
20260904203152 24 200 3.2 4.8 0.00 0.00 0.00 67 1010.5
20260904202647 25 46 3.2 4.8 0.00 0.00 0.00 66 1010.7
20260904202144 25 190 1.6 3.2 0.00 0.00 0.00 65 1010.8
20260904201638 25 214 0.0 0.0 0.00 0.00 0.00 67 1010.7
20260904201133 25 191 3.2 4.8 0.00 0.00 0.00 70 1010.6
20260904200632 26 191 6.4 8.0 0.00 0.00 0.00 63 1010.7
20260904200128 26 202 11.3 14.5 0.00 0.00 0.00 68 1010.6
20260904195626 26 289 14.5 16.1 0.00 0.00 0.00 63 1010.8
20260904195126 25 10 6.4 8.0 0.00 0.00 0.00 66 1010.8
20260904194619 26 268 6.4 8.0 0.00 0.00 0.00 62 1010.7
20260904194115 26 203 9.7 11.3 0.00 0.00 0.00 63 1010.7
20260904193609 26 245 8.0 11.3 0.00 0.00 0.00 62 1010.8
20260904193106 25 198 6.4 8.0 0.00 0.00 0.00 65 1011.0
20260904192605 25 20 9.7 11.3 0.00 0.00 0.00 64 1011.1
20260904192101 25 143 1.6 3.2 0.00 0.00 0.00 63 1010.9
20260904191558 25 166 0.0 0.0 0.00 0.00 0.00 64 1011.0
20260904191054 25 124 4.8 4.8 0.00 0.00 0.00 64 1011.0
20260904190549 26 237 9.7 14.5 0.00 0.00 0.00 63 1010.9
20260904190045 26 207 3.2 3.2 0.00 0.00 0.00 59 1010.9